Location: Cisewo
(53.3833°N, 14.9000°E)
Time: 11:56:54
(UTC+00:00)

Cosmos 1980 - Pass Details

Date: 18 April 2021
Orbit: 838 x 848 km, 71.0° (Epoch: 14 May)

Event Time Altitude Azimuth Distance (km) Brightness Sun altitude
Rises 18:44:16 0° 328° (NNW) 3,419 8.0 -5.9°
Reaches altitude 10° 18:46:49 10° 334° (NNW) 2,482 7.1 -6.3°
Maximum altitude 18:52:22 51° 50° (NE) 1,067 4.1 -7.0°
Drops below altitude 10° 18:57:53 10° 125° (SE) 2,473 5.4 -7.7°
Enters shadow 18:58:03 - 126° (SE) 2,535 5.5 -7.7°
